This is the latest recevied weather packets stored in our database for station/object HP1MRA-15. If no packets are shown the sender has not sent any weather packets the latest 10 day(s).
| Time | Temp. | Humidity | Pressure | Rain* | Wind** | Luminosity | Snow |
|---|---|---|---|---|---|---|---|
| 1777862902 | 28.89° C | 76% | 1003.6 hPa | 0 mm | - | - | - |
| 1777862601 | 28.89° C | 76% | 1003.6 hPa | 0 mm | - | - | - |
| 1777862302 | 28.89° C | 76% | 1003.6 hPa | 0 mm | - | - | - |
| 1777862001 | 28.89° C | 76% | 1003.6 hPa | 0 mm | - | - | - |
| 1777861701 | 28.33° C | 77% | 1003.7 hPa | 0 mm | - | - | - |
| 1777861402 | 28.33° C | 77% | 1003.6 hPa | 0 mm | - | - | - |
| 1777861101 | 28.33° C | 77% | 1003.6 hPa | 0 mm | - | - | - |
| 1777860801 | 28.33° C | 78% | 1003.6 hPa | 0 mm | - | - | - |
| 1777860502 | 27.78° C | 79% | 1003.5 hPa | 0 mm | - | - | - |
| 1777860201 | 27.78° C | 79% | 1003.6 hPa | 0 mm | - | - | - |
| 1777859901 | 27.78° C | 79% | 1003.5 hPa | 0 mm | - | - | - |
| 1777859601 | 27.78° C | 78% | 1003.4 hPa | 0 mm | - | - | - |
| 1777859301 | 28.33° C | 77% | 1003.5 hPa | 0 mm | - | - | - |
| 1777859001 | 28.89° C | 76% | 1003.6 hPa | 0 mm | - | - | - |
| 1777858701 | 28.89° C | 75% | 1003.5 hPa | 0 mm | - | - | - |
| 1777858401 | 29.44° C | 74% | 1003.5 hPa | 0 mm | - | - | - |
| 1777858101 | 29.44° C | 74% | 1003.4 hPa | 0 mm | - | - | - |
| 1777857801 | 29.44° C | 74% | 1003.3 hPa | 0 mm | - | - | - |
| 1777857501 | 29.44° C | 74% | 1003.3 hPa | 0 mm | - | - | - |
| 1777857201 | 29.44° C | 74% | 1003.2 hPa | 0 mm | - | - | - |
| 1777856901 | 28.89° C | 74% | 1003.3 hPa | 0 mm | - | - | - |
| 1777856601 | 28.89° C | 74% | 1003.4 hPa | 0 mm | - | - | - |
| 1777856301 | 28.89° C | 75% | 1003.3 hPa | 0 mm | - | - | - |
| 1777856000 | - | - | 1003.2 hPa | 0 mm | - | - | - |
| 1777855701 | 28.89° C | 75% | 1003.1 hPa | 0 mm | - | - | - |
* Rain latest hour (hover to see other rain measurements)
** Current wind speed in m/s (hover to see current wind gust speed)